Location: Artiguedieu
(43.5000°N, 0.5454°E)
Time: 06:07:39
(UTC+00:00)

USA 306 - Pass Details

Date: 06 December 2020
Orbit: 568 x 576 km, 54.0° (Epoch: 11 January)

Event Time Altitude Azimuth Distance (km) Brightness Sun altitude
Exits shadow 06:02:26 20° 293° (WNW) 1,349 4.1 -13.0°
Maximum altitude 06:05:11 53° 223° (SW) 710 3.2 -12.5°
Drops below altitude 10° 06:09:21 10° 147° (SSE) 1,880 6.4 -11.8°
Sets 06:11:38 0° 142° (SE) 2,775 7.5 -11.4°
